Other Public Products
Issued by NWS Grand Forks, ND

Home | Current Version | Previous Version | Text Only | Print | Product List | Glossary Off
Versions: 1 2 3 4 5 6 7 8 9 10 11 12 13 14 15 16 17 18 19 20 21 22 23 24 25 26 27 28 29 30 31 32 33 34 35 36 37 38 39 40 41 42 43 44 45 46 47 48 49 50

000
FPUS83 KFGF 232110
OPUFGF
PRAIRIE TO PINES WEATHER ROUNDUP
NATIONAL WEATHER SERVICE EASTERN NORTH DAKOTA/GRAND FORKS ND
400 PM CDT SAT JUL 23 2016

 **SATELLITE DATA USED TO AUGMENT SKY COVER AT AUTOMATED STATIONS**
 *****  WEATHER ACROSS EASTERN NORTH DAKOTA  *****

CITY           SKY/WX    TMP DP  RH WIND       PRES   REMARKS
GRAND FORKS    HVY RAIN  70  67  90 NW6       29.74R FOG
GRAND FORKS AF TSTM      69  67  93 E14       29.73F VSB 1/2
GRAND CITY NWS   N/A     68 N/A N/A NW7         N/A
BUXTON           N/A     76  73  89 E12         N/A
DEVILS LAKE    MOSUNNY   75  66  73 CALM      29.76F
FARGO          PTSUNNY   80  69  69 SE12      29.72S
WAHPETON ARPT  PTCLDY    81  68  65 S16G22    29.74S
$$

 *****  WEATHER ACROSS CENTRAL AND WESTERN NORTH DAKOTA  *****

CITY           SKY/WX    TMP DP  RH WIND       PRES   REMARKS
JAMESTOWN      LGT RAIN  75  69  81 S9        29.77R
BISMARCK       MOSUNNY   83  63  50 N18       29.81R
MINOT          SUNNY     85  54  34 W17G24    29.76S
MINOT AFB      SUNNY     80  58  47 W17G24    29.75S
GARRISON         N/A     79  58  48 W13G23    29.80S
WILLISTON      SUNNY     82  49  31 W23G32    29.82S
DICKINSON      SUNNY     81  46  29 W21G30    29.87S
HETTINGER      SUNNY     87  43  21 NW23G30   29.91S
$$

 *****  OTHER OBSERVATIONS NORTHEAST NORTH DAKOTA  *****

CITY           SKY/WX    TMP DP  RH WIND       PRES   REMARKS
WALHALLA       NOT AVBL
LANGDON        FAIR      79  68  69 S6        29.76F
CAVALIER       FAIR      75  66  73 E5        29.74S
GRAFTON        FAIR      73  70  88 NE10      29.74R
CANDO          NOT AVBL
FORT TOTTEN      N/A     75  67  76 N2        29.95S
ROLLA            N/A     75  66  73 SW9       29.76F
RUGBY          NOT AVBL
 ***** THE ABOVE OBSERVATIONS ARE NON NWS ARE NOT QUALITY
        CONTROLLED AND MAY MIS-REPORT RAIN FOR SNOW...
$$

 *****  OTHER OBSERVATIONS SOUTHEAST NORTH DAKOTA *****

CITY           SKY/WX    TMP DP  RH WIND       PRES   REMARKS
COOPERSTOWN    NOT AVBL
VALLEY CITY    MOCLDY    79  73  83 S7        29.78R
OAKES            N/A    N/A N/A N/A MISG        N/A
GWINNER        FAIR      82  73  74 SE7       29.75R
SHEYENNE NWR     N/A     83  72  69 S12       29.95S
BUFFALO          N/A     80  69  69 E8          N/A
WYNDMERE       NOT AVBL
 ***** THE ABOVE OBSERVATIONS ARE NON NWS ARE NOT QUALITY
       CONTROLLED AND MAY MIS-REPORT RAIN FOR SNOW...
$$

  *****  WEATHER ACROSS NORTHERN MINNESOTA  *****

CITY           SKY/WX    TMP DP  RH WIND       PRES   REMARKS
FLAG ISLAND    LGT RAIN  70  64  83 N3        29.82S
WARROAD        LGT RAIN  70  64  83 NE9G22    29.79F
ROSEAU         LGT RAIN  66  63  88 NE14      29.74F
HALLOCK        CLOUDY    73  68  83 E12       29.71R
THF RVR FALLS  CLOUDY    71  67  87 E6        29.74S
HALSTAD        NOT AVBL
FOSSTON        CLOUDY    77  70  78 E12       29.74F
BAUDETTE       LGT RAIN  73  67  81 W6        29.83R
WASKISH        CLOUDY    79  66  65 S7G17     29.82R
CROOKSTON      CLOUDY    70  68  94 E8        29.71S
$$
  *****  WEATHER ACROSS CENTRAL AND WEST MINNESOTA  *****

CITY           SKY/WX    TMP DP  RH WIND       PRES   REMARKS
BEMIDJI        CLOUDY    72  70  94 SE9       29.77F
PARK RAPIDS    CLOUDY    75  69  81 SE13      29.78F
WADENA         PTSUNNY   73  66  78 SE10      29.81F
DETROIT LAKES  MOSUNNY   77  68  73 SE20G26   29.75F
MOORHEAD       CLOUDY    81  70  69 S10G16    29.73F
FERGUS FALLS   CLOUDY    79  70  73 SE15      29.76F
ELBOW LAKE     FAIR      77  71  81 E12G17    29.77F
MORRIS MN      CLOUDY    79  72  78 SE15      29.77F
STAPLES        CLOUDY    75  66  73 SE9       29.82F
WHEATON        CLOUDY    81  75  83 SE16G22   29.74F
$$
  *****  WEATHER ELSEWHERE ACROSS MINNESOTA  *****

CITY           SKY/WX    TMP DP  RH WIND       PRES   REMARKS
DULUTH         CLOUDY    68  61  78 E13       29.90S
INTRNTL FALLS  CLOUDY    77  64  64 SE10      29.84F
ELY            CLOUDY    73  57  56 E8        29.89F
CLOQUET        CLOUDY    70  61  73 E7        29.89F
BRAINERD       CLOUDY    75  70  84 S9        29.83F
HIBBING        CLOUDY    73  63  70 SE9       29.88R
ALEXANDRIA     CLOUDY    78  69  73 SE16      29.82F
SAINT CLOUD    CLOUDY    73  71  93 SE10      29.85F
MINNEAPOLIS    RAIN      75  69  81 E7        29.85S
$$

  *****  WEATHER ACROSS SOUTH DAKOTA  *****

CITY           SKY/WX    TMP DP  RH WIND       PRES   REMARKS
SIOUX FALLS    MOSUNNY   90  74  59 S10       29.75F HX  99
BROOKINGS      CLOUDY    89  74  60 S10       29.76F HX  98
WATERTOWN      SUNNY     89  72  56 SW8       29.76F HX  96
HURON          SUNNY     93  70  46 S9        29.71F HX  99
SISSETON         N/A     84  76  76 S9G21     29.72F HX  93
ABERDEEN       PTSUNNY   90  73  57 CALM      29.72F HX  98
MITCHELL       SUNNY     94  72  48 VRB7      29.72F HX 102
PIERRE         SUNNY     93  65  39 NW21G31   29.77R HX  95
MOBRIDGE       PTSUNNY   87  66  49 NW21G26   29.79R
RAPID CITY     SUNNY     90  43  19 N23G31    29.94R
$$

  *****  SOME WEATHER IN NEARBY STATES *****

CITY           SKY/WX    TMP DP  RH WIND       PRES   REMARKS
GLASGOW MT     SUNNY     80  50  34 NW31G38   29.89S
GREAT FALLS MT PTSUNNY   79  38  22 W9G21     30.06F
CHEYENNE WY    CLOUDY    86  40  19 W13       30.14R THUNDER
SCOTTSBLUFF NE SUNNY     97  48  18 VRB5      29.96F HX  93
OMAHA NE       MOSUNNY   92  74  55 S15       29.79F HX 101
DES MOINES IA  CLOUDY    91  80  70 S12       29.82F HX 109
DAVENPORT IA   PTSUNNY   89  80  74 S8        29.92R HX 106
CHICAGO IL     CLOUDY    90  74  59 S10       29.91F HX  99
EAU CLAIRE WI  CLOUDY    74  70  87 SE12      29.85F
LA CROSSE WI   RAIN      72  70  93 SE12      29.91F FOG
$$

  *****  SOME NATIONAL WEATHER *****

CITY           SKY/WX    TMP DP  RH WIND       PRES   REMARKS
LA GUARDIA NY  MOSUNNY   94  54  25 NW23G29   29.78F HX  92
RALEIGH NC     MOSUNNY   93  74  53 SW7       29.96S HX 103
ATLANTA GA     CLOUDY    91  68  46 S3        30.01F HX  95
NEW ORLEANS LA LGT RAIN  89  77  67 S12       29.96F HX 101
OKLAHOMA CITY  MOSUNNY   99  64  31 SW15      29.90F HX 101
ALBUQUERQUE NM CLOUDY    97  43  15 VRB6      30.09F HX  93
SALT LAKE CITY MOSUNNY   92  27   9 N12G17    30.08F
LOS ANGELES CA PTSUNNY   82  63  52 W13       29.81S
BOISE ID       SUNNY     82  30  15 NW13      30.12F
SEATTLE WA     PTSUNNY   68  55  63 CALM      30.27F
$$

*** WEATHER ACROSS MANITOBA...SASKATCHEWAN AND ONTARIO ***
                ***ONTARIO***

CITY           SKY/WX    TMP DP  RH WIND       PRES   REMARKS
GERALDTON      PTSUNNY   79  54  41 VRB2      30.01S
THUNDER BAY    CLOUDY    72  61  68 E10       29.95F
SIOUX LOOKOUT  CLOUDY    73  63  68 E6        29.91F
TORONTO        MOSUNNY   91  55  29 NW16      29.90F
BIG TROUT LK   SUNNY     73  52  46 SE10      29.91F
PICKLE LAKE    CLOUDY    77  57  50 S13       29.96R
DRYDEN         PTSUNNY   77  63  61 NE9       29.89F
KENORA         LGT RAIN  66  63  88 NE8       29.85F
$$
                *** MANITOBA***

CITY           SKY/WX    TMP DP  RH WIND       PRES   REMARKS
BRANDON        PTSUNNY   75  66  73 SW13G20   29.70F
DAUPHIN        TSTM      72  68  88 E6        29.63F FOG
ISLAND LAKE    CLOUDY    72  55  56 S7        29.82
PILOT MOUND      N/A     75  64  69 S8          N/A
THE PAS        LGT RAIN  66  61  82 E5        29.68F
THOMPSON       LGT RAIN  64  63  94 VRB2      29.75F
WINNIPEG       MOSUNNY   75  66  73 SE15      29.72F
LYNN LAKE      CLOUDY    64  59  82 MISG      29.71S
CHURCHILL      PTSUNNY   63  57  82 SW12      29.69S
GILLAM         PTSUNNY   73  54  49 S13G22    29.77S
$$
                ***SASKATCHEWAN***

CITY           SKY/WX    TMP DP  RH WIND       PRES   REMARKS
ESTEVAN        MOSUNNY   75  54  46 W22G32    29.76R
KINDERSLEY     LGT RAIN  66  57  72 NW6       29.91R
LLOYDMINSTER   PTSUNNY   70  52  52 W15G24    29.89S
PRINCE ALBERT  PTSUNNY   73  61  64 VRB7      29.71F
REGINA         LGT RAIN  66  61  82 W24G31    29.74S
YORKTON        CLOUDY    72  63  73 SW18G28   29.63S   C1F1C2F2C3F3C4F4C5F5C6F6C7F7C8F8C9F9CaFaCbFbCcFcCdFdCe!


USA.gov is the U.S. government's official web portal to all federal, state and local government web resources and services.